TimeCDT,TemperatureF,Dew PointF,Humidity,Sea Level PressureIn,VisibilityMPH,Wind Direction,Wind SpeedMPH,Gust SpeedMPH,PrecipitationIn,Events,Conditions,WindDirDegrees,DateUTC
12:52 AM,64.0,55.0,73,30.17,10.0,WNW,3.5,-,N/A,,Partly Cloudy,290,2013-08-14 05:52:00
1:52 AM,64.9,54.0,68,30.16,10.0,ESE,8.1,-,N/A,,Clear,120,2013-08-14 06:52:00
2:52 AM,63.0,54.0,72,30.17,10.0,SSE,4.6,-,N/A,,Clear,150,2013-08-14 07:52:00
3:52 AM,62.1,54.0,75,30.17,10.0,SE,8.1,-,N/A,,Clear,130,2013-08-14 08:52:00
4:52 AM,60.1,53.1,78,30.17,10.0,SE,6.9,-,N/A,,Partly Cloudy,130,2013-08-14 09:52:00
5:52 AM,60.1,53.1,78,30.17,10.0,ESE,5.8,-,N/A,,Scattered Clouds,110,2013-08-14 10:52:00
6:52 AM,60.1,53.1,78,30.18,10.0,ESE,4.6,-,N/A,,Scattered Clouds,110,2013-08-14 11:52:00
7:52 AM,62.1,53.1,72,30.19,10.0,SE,4.6,-,N/A,,Scattered Clouds,130,2013-08-14 12:52:00
8:52 AM,64.0,54.0,70,30.20,10.0,SSE,6.9,-,N/A,,Mostly Cloudy,150,2013-08-14 13:52:00
9:52 AM,66.9,55.0,66,30.20,10.0,SSE,8.1,-,N/A,,Overcast,150,2013-08-14 14:52:00
10:52 AM,71.1,55.9,59,30.19,10.0,SSE,9.2,-,N/A,,Mostly Cloudy,150,2013-08-14 15:52:00
11:52 AM,75.0,55.9,51,30.18,10.0,SSE,8.1,-,N/A,,Mostly Cloudy,150,2013-08-14 16:52:00
12:52 PM,75.9,54.0,46,30.16,10.0,ESE,12.7,-,N/A,,Mostly Cloudy,120,2013-08-14 17:52:00
1:52 PM,75.9,54.0,46,30.15,10.0,SE,10.4,-,N/A,,Overcast,130,2013-08-14 18:52:00
2:52 PM,75.0,54.0,48,30.15,10.0,ESE,8.1,-,0.00,,Mostly Cloudy,120,2013-08-14 19:52:00
3:52 PM,75.0,54.0,48,30.13,10.0,ESE,9.2,-,0.00,,Overcast,120,2013-08-14 20:52:00
4:52 PM,73.9,55.9,53,30.12,10.0,East,8.1,-,0.00,,Overcast,100,2013-08-14 21:52:00
5:52 PM,73.9,57.0,55,30.11,10.0,ESE,6.9,-,N/A,,Overcast,110,2013-08-14 22:52:00
6:52 PM,73.9,55.9,53,30.08,10.0,ESE,8.1,-,N/A,,Overcast,110,2013-08-14 23:52:00
7:52 PM,73.0,55.9,55,30.08,10.0,ESE,5.8,-,N/A,,Overcast,110,2013-08-15 00:52:00
8:52 PM,72.0,57.0,59,30.08,10.0,East,5.8,-,N/A,,Overcast,100,2013-08-15 01:52:00
9:52 PM,71.1,57.0,61,30.09,10.0,East,6.9,-,N/A,,Overcast,100,2013-08-15 02:52:00
10:52 PM,68.0,57.9,70,30.09,10.0,East,8.1,-,0.00,Rain,Light Rain,90,2013-08-15 03:52:00
11:52 PM,68.0,57.9,70,30.09,10.0,SE,5.8,-,0.00,Rain,Light Rain,130,2013-08-15 04:52:00